Rabat, Morocco

12:09 PM WET on February 23, 2017 (GMT +0000)
Sale

Weather History for GMME - October, 2012

Change the Weather History Date:

Sunday, October 7, 2012

  Actual Average Record
Temperature  
Mean Temperature 68 °F -  
Max Temperature 79 °F 72 °F 80 °F (2002)
Min Temperature 57 °F 55 °F 50 °F (1996)
Cooling Degree Days 3    
Growing Degree Days 18 (Base 50)    
Moisture  
Dew Point 63 °F    
Average Humidity 82    
Maximum Humidity 100    
Minimum Humidity 44    
Precipitation  
Precipitation 0.00 in 0.07 in - ()
Sea Level Pressure  
Sea Level Pressure 30.09 in    
Wind  
Wind Speed 2 mph ()    
Max Wind Speed 10 mph    
Max Gust Speed -    
Visibility 2.9 miles    
Events      
Averages and records for this station are not official NWS values.
T = Trace of Precipitation, MM = Missing Value Source: Averaged Metar Reports

Daily Weather History Graph

Daily Weather History Graph

Search for Another Location

Airport or City:

Trip Planner

Search our weather history database for the weather conditions in past years. The results will help you decide how hot, cold, wet, or windy it might be!

Date:

Astronomy

Oct. 07, 2012 Rise Set
Actual Time 6:26 AM WET 6:02 PM WET
Civil Twilight 6:01 AM WET 6:27 PM WET
Nautical Twilight 5:32 AM WET 6:56 PM WET
Astronomical Twilight 5:03 AM WET 7:25 PM WET
Moon 11:11 PM WET (10/7) 12:42 PM WET (10/7)
Length of Visible Light 12h 26m
Length of Day
11h 36m
Waning Gibbous, 58% of the Moon is Illuminated
Oct 7
Waning Gibbous
Oct 8
Last Quarter
Oct 15
New
Oct 22
First Quarter
Oct 29
Full

Hourly Weather History & Observations

Time (WET) Temp. Heat Index Dew Point Humidity Pressure Visibility Wind Dir Wind Speed Gust Speed Precip Events Conditions
12:00 AM 60 °F - 58 °F 92% 30.12 in 3 mi Calm Calm - -   Partly Cloudy
12:00 AM 60.8 °F - 59.0 °F 94% 30.09 in 3.1 mi Calm Calm - N/A   Scattered Clouds
12:30 AM 60.8 °F - 59.0 °F 94% 30.09 in 3.1 mi Calm Calm - N/A   Scattered Clouds
1:00 AM 59.0 °F - 57.2 °F 94% 30.12 in 3.1 mi Calm Calm - N/A   Scattered Clouds
1:30 AM 59.0 °F - 57.2 °F 94% 30.12 in 3.1 mi Calm Calm - N/A   Scattered Clouds
2:00 AM 57.2 °F - 57.2 °F 100% 30.09 in 3.1 mi Calm Calm - N/A   Scattered Clouds
2:30 AM 60.8 °F - 59.0 °F 94% 30.09 in 3.1 mi Calm Calm - N/A   Scattered Clouds
3:00 AM 60 °F - 58 °F 92% 30.11 in 3 mi Calm Calm - -   Partly Cloudy
3:00 AM 59.0 °F - 59.0 °F 100% 30.09 in 3.1 mi Calm Calm - N/A   Scattered Clouds
3:30 AM 64.4 °F - 62.6 °F 94% 30.09 in 3.1 mi Calm Calm - N/A   Scattered Clouds
4:00 AM 66.2 °F - 64.4 °F 94% 30.09 in 3.1 mi East 2.3 mph - N/A   Scattered Clouds
4:12 AM 66.2 °F - 64.4 °F 94% 30.09 in 2.5 mi Calm Calm - N/A   Mostly Cloudy
4:30 AM 66.2 °F - 64.4 °F 94% 30.09 in 2.5 mi Calm Calm - N/A   Mostly Cloudy
5:00 AM 66.2 °F - 64.4 °F 94% 30.09 in 2.5 mi Calm Calm - N/A   Mostly Cloudy
5:30 AM 66.2 °F - 64.4 °F 94% 30.09 in 2.5 mi Calm Calm - N/A   Mostly Cloudy
6:00 AM 65 °F - 64 °F 93% 30.10 in 2 mi Calm Calm - -   Mist
6:00 AM 66.2 °F - 64.4 °F 94% 30.09 in 2.5 mi Calm Calm - N/A   Mostly Cloudy
6:30 AM 64.4 °F - 62.6 °F 94% 30.09 in 2.5 mi Calm Calm - N/A   Mostly Cloudy
7:00 AM 64.4 °F - 62.6 °F 94% 30.09 in 2.5 mi Calm Calm - N/A   Mostly Cloudy
7:08 AM 64.4 °F - 62.6 °F 94% 30.09 in 2.5 mi Calm Calm - N/A   Scattered Clouds
7:30 AM 64.4 °F - 64.4 °F 100% 30.09 in 1.6 mi Calm Calm - N/A   Scattered Clouds
7:52 AM 68.0 °F - 66.2 °F 94% 30.09 in 3.1 mi Calm Calm - N/A   Scattered Clouds
8:00 AM 68.0 °F - 66.2 °F 94% 30.09 in 3.1 mi Calm Calm - N/A   Scattered Clouds
8:30 AM 73.4 °F - 64.4 °F 73% 30.09 in 3.1 mi Calm Calm - N/A   Scattered Clouds
9:00 AM 78 °F - 60 °F 44% 30.11 in 5 mi Calm Calm - -   Scattered Clouds
9:00 AM 77.0 °F - 59.0 °F 54% 30.09 in 5.0 mi Calm Calm - N/A   Scattered Clouds
9:30 AM 78.8 °F - 60.8 °F 54% 30.12 in 5.0 mi Calm Calm - N/A   Scattered Clouds
10:00 AM 77.0 °F - 64.4 °F 65% 30.09 in 3.1 mi NNW 6.9 mph - N/A   Scattered Clouds
10:30 AM 77.0 °F - 64.4 °F 65% 30.09 in 3.1 mi NNW 5.8 mph - N/A   Scattered Clouds
11:00 AM 75.2 °F - 64.4 °F 69% 30.09 in 3.1 mi NNW 9.2 mph - N/A   Scattered Clouds
11:30 AM 73.4 °F - 64.4 °F 73% 30.09 in 3.1 mi NNW 8.1 mph - N/A   Scattered Clouds
12:00 PM 74 °F - 64 °F 63% 30.11 in 3 mi North 10.4 mph - -   Scattered Clouds
12:00 PM 75.2 °F - 64.4 °F 69% 30.09 in 3.1 mi North 10.4 mph - N/A   Scattered Clouds
12:30 PM 77.0 °F - 64.4 °F 65% 30.09 in 3.1 mi North 8.1 mph - N/A   Scattered Clouds
1:00 PM 77.0 °F - 64.4 °F 65% 30.09 in 3.1 mi North 8.1 mph - N/A   Partly Cloudy
1:30 PM 77.0 °F - 64.4 °F 65% 30.09 in 3.1 mi NNW 9.2 mph - N/A   Partly Cloudy
2:00 PM 80.6 °F 82.7 °F 66.2 °F 61% 30.06 in 3.1 mi North 8.1 mph - N/A   Partly Cloudy
2:30 PM 78.8 °F - 64.4 °F 61% 30.06 in 3.1 mi North 9.2 mph - N/A   Partly Cloudy
3:00 PM 78 °F - 63 °F 51% 30.08 in 3 mi North 9.2 mph - -   Scattered Clouds
3:00 PM 78.8 °F - 62.6 °F 57% 30.06 in 3.1 mi North 9.2 mph - N/A   Partly Cloudy
3:30 PM 77.0 °F - 64.4 °F 65% 30.06 in 3.1 mi North 10.4 mph - N/A   Partly Cloudy
4:00 PM 77.0 °F - 64.4 °F 65% 30.09 in 3.1 mi NNW 9.2 mph - N/A   Partly Cloudy
4:30 PM 75.2 °F - 64.4 °F 69% 30.06 in 3.1 mi North 10.4 mph - N/A   Partly Cloudy
5:00 PM 75.2 °F - 64.4 °F 69% 30.09 in 3.1 mi North 9.2 mph - N/A   Partly Cloudy
5:30 PM 73.4 °F - 66.2 °F 78% 30.09 in 3.1 mi North 9.2 mph - N/A   Partly Cloudy
6:00 PM 72 °F - 65 °F 73% 30.09 in 3 mi North 5.8 mph - -   Scattered Clouds
6:00 PM 71.6 °F - 64.4 °F 78% 30.09 in 3.1 mi North 5.8 mph - N/A   Partly Cloudy
6:30 PM 69.8 °F - 64.4 °F 83% 30.09 in 3.1 mi Calm Calm - N/A   Partly Cloudy
7:00 PM 68.0 °F - 64.4 °F 88% 30.09 in 3.1 mi Calm Calm - N/A   Partly Cloudy
7:20 PM 66.2 °F - 62.6 °F 88% 30.09 in 2.5 mi Calm Calm - N/A   Partly Cloudy
7:30 PM 66.2 °F - 62.6 °F 88% 30.09 in 2.5 mi Calm Calm - N/A   Partly Cloudy
8:00 PM 64.4 °F - 62.6 °F 94% 30.09 in 2.5 mi Calm Calm - N/A   Partly Cloudy
8:30 PM 66.2 °F - 64.4 °F 94% 30.12 in 2.5 mi Calm Calm - N/A   Partly Cloudy
9:00 PM 63 °F - 61 °F 92% 30.13 in 2 mi Calm Calm - -   Mist
9:00 PM 62.6 °F - 60.8 °F 94% 30.12 in 2.5 mi Calm Calm - N/A   Partly Cloudy
9:30 PM 62.6 °F - 60.8 °F 94% 30.12 in 2.5 mi Calm Calm - N/A   Partly Cloudy
10:00 PM 60.8 °F - 59.0 °F 94% 30.12 in 2.5 mi Calm Calm - N/A   Partly Cloudy
10:30 PM 60.8 °F - 59.0 °F 94% 30.12 in 2.5 mi Calm Calm - N/A   Partly Cloudy
11:00 PM 62.6 °F - 60.8 °F 94% 30.12 in 2.5 mi Calm Calm - N/A   Partly Cloudy
11:30 PM 60.8 °F - 59.0 °F 94% 30.12 in 1.2 mi Calm Calm - N/A   Partly Cloudy